TimeMDT,TemperatureF,Dew PointF,Humidity,Sea Level PressureIn,VisibilityMPH,Wind Direction,Wind SpeedMPH,Gust SpeedMPH,PrecipitationIn,Events,Conditions,WindDirDegrees,DateUTC
12:13 AM,35.6,35.6,100,30.02,1.8,Calm,Calm,-,0.00,,Overcast,0,2013-04-20 06:13:00
12:30 AM,35.6,35.6,100,30.03,3.0,Calm,Calm,-,0.00,,Overcast,0,2013-04-20 06:30:00
12:51 AM,37.0,36.0,96,30.06,10.0,Calm,Calm,-,0.00,Rain,Light Rain,0,2013-04-20 06:51:00
1:23 AM,35.6,35.6,100,30.03,9.0,Calm,Calm,-,0.01,Rain,Light Rain,0,2013-04-20 07:23:00
1:40 AM,35.6,35.6,100,30.03,10.0,Calm,Calm,-,0.01,,Overcast,0,2013-04-20 07:40:00
1:47 AM,35.6,35.6,100,30.04,10.0,Calm,Calm,-,0.01,,Overcast,0,2013-04-20 07:47:00
1:51 AM,36.0,35.1,97,30.06,9.0,Calm,Calm,-,0.01,,Overcast,0,2013-04-20 07:51:00
1:58 AM,35.6,35.6,100,30.04,6.0,Calm,Calm,-,N/A,,Overcast,0,2013-04-20 07:58:00
2:51 AM,36.0,35.1,97,30.06,5.0,Calm,Calm,-,0.00,,Overcast,0,2013-04-20 08:51:00
3:51 AM,37.0,35.1,93,30.06,10.0,Calm,Calm,-,0.00,,Overcast,0,2013-04-20 09:51:00
4:51 AM,37.0,35.1,93,30.06,10.0,Calm,Calm,-,0.00,,Overcast,0,2013-04-20 10:51:00
5:45 AM,35.6,33.8,93,30.05,10.0,West,3.5,-,N/A,,Mostly Cloudy,280,2013-04-20 11:45:00
5:51 AM,35.1,33.1,92,30.08,10.0,Calm,Calm,-,N/A,,Mostly Cloudy,0,2013-04-20 11:51:00
6:34 AM,35.6,33.8,93,30.07,10.0,Calm,Calm,-,N/A,,Mostly Cloudy,0,2013-04-20 12:34:00
6:51 AM,34.0,33.1,96,30.11,10.0,Calm,Calm,-,N/A,,Overcast,0,2013-04-20 12:51:00
7:13 AM,33.8,32.0,93,30.08,10.0,Calm,Calm,-,N/A,,Scattered Clouds,0,2013-04-20 13:13:00
7:30 AM,33.8,30.2,87,30.08,10.0,Calm,Calm,-,N/A,,Mostly Cloudy,0,2013-04-20 13:30:00
7:51 AM,34.0,32.0,92,30.13,10.0,WSW,5.8,-,N/A,,Mostly Cloudy,250,2013-04-20 13:51:00
7:59 AM,33.8,32.0,93,30.09,10.0,Calm,Calm,-,N/A,,Scattered Clouds,0,2013-04-20 13:59:00
8:09 AM,33.8,32.0,93,30.10,10.0,Calm,Calm,-,N/A,,Mostly Cloudy,0,2013-04-20 14:09:00
8:51 AM,36.0,34.0,93,30.13,10.0,Calm,Calm,-,N/A,,Overcast,0,2013-04-20 14:51:00
9:47 AM,41.0,33.8,76,30.11,10.0,Calm,Calm,-,N/A,,Mostly Cloudy,0,2013-04-20 15:47:00
9:51 AM,39.9,34.0,79,30.13,10.0,Variable,3.5,-,N/A,,Mostly Cloudy,0,2013-04-20 15:51:00
10:17 AM,39.2,32.0,75,30.11,10.0,Calm,Calm,-,N/A,,Mostly Cloudy,0,2013-04-20 16:17:00
10:51 AM,43.0,30.0,60,30.13,10.0,Variable,3.5,-,N/A,,Scattered Clouds,0,2013-04-20 16:51:00
11:51 AM,42.1,30.9,65,30.14,10.0,West,5.8,-,N/A,,Overcast,260,2013-04-20 17:51:00
12:51 PM,43.0,30.9,62,30.14,10.0,North,9.2,-,0.01,,Overcast,360,2013-04-20 18:51:00
1:51 PM,43.0,30.9,62,30.13,10.0,South,9.2,-,N/A,,Overcast,190,2013-04-20 19:51:00
2:51 PM,44.1,33.1,65,30.12,10.0,South,9.2,-,N/A,,Overcast,170,2013-04-20 20:51:00
3:51 PM,46.0,32.0,58,30.10,10.0,Variable,3.5,-,0.00,,Overcast,0,2013-04-20 21:51:00
4:51 PM,46.9,28.9,50,30.09,10.0,Variable,5.8,-,N/A,,Mostly Cloudy,0,2013-04-20 22:51:00
5:51 PM,48.0,26.1,42,30.09,10.0,Variable,5.8,17.3,N/A,,Overcast,0,2013-04-20 23:51:00
6:51 PM,46.9,26.1,44,30.09,10.0,SW,5.8,-,N/A,,Mostly Cloudy,220,2013-04-21 00:51:00
7:51 PM,46.0,26.1,46,30.10,10.0,West,9.2,-,N/A,,Scattered Clouds,260,2013-04-21 01:51:00
8:51 PM,43.0,27.0,53,30.11,10.0,Calm,Calm,-,N/A,,Clear,0,2013-04-21 02:51:00
9:51 PM,36.0,28.9,76,30.14,10.0,NE,3.5,-,N/A,,Clear,50,2013-04-21 03:51:00
10:51 PM,34.0,28.0,79,30.14,10.0,Calm,Calm,-,N/A,,Clear,0,2013-04-21 04:51:00
11:51 PM,30.9,27.0,85,30.15,10.0,Calm,Calm,-,N/A,,Clear,0,2013-04-21 05:51:00